Time,TemperatureF,DewpointF,PressureIn,WindDirection,WindDirectionDegrees,WindSpeedMPH,WindSpeedGustMPH,Humidity,HourlyPrecipIn,Conditions,Clouds,dailyrainin,SoftwareType,DateUTC
2013-01-01 00:11:00,21.7,18.2,30.10,NE,45,6.3,-999.0,86,-99.99,,,0.00,Acu-Link.com,2013-01-01 06:11:00,
2013-01-01 00:26:00,21.6,17.8,30.10,West,270,5.8,-999.0,85,-99.99,,,0.00,Acu-Link.com,2013-01-01 06:26:00,
2013-01-01 00:41:00,21.4,17.9,30.10,NNE,22,7.3,-999.0,86,-99.99,,,0.00,Acu-Link.com,2013-01-01 06:41:00,
2013-01-01 00:56:00,21.4,17.9,30.09,NNE,22,4.2,-999.0,86,-99.99,,,0.00,Acu-Link.com,2013-01-01 06:56:00,
2013-01-01 01:11:00,21.4,17.9,30.10,NNE,22,5.8,-999.0,86,-99.99,,,0.00,Acu-Link.com,2013-01-01 07:11:00,
2013-01-01 01:26:00,21.0,17.2,30.11,NNE,22,4.7,-999.0,85,-99.99,,,0.00,Acu-Link.com,2013-01-01 07:26:00,
2013-01-01 01:42:00,21.0,17.2,30.10,NE,45,6.8,-999.0,85,-99.99,,,0.00,Acu-Link.com,2013-01-01 07:42:00,
2013-01-01 01:57:00,20.8,17.0,30.11,North,0,6.3,-999.0,85,-99.99,,,0.00,Acu-Link.com,2013-01-01 07:57:00,
2013-01-01 02:12:00,20.7,17.2,30.11,NNE,22,8.3,-999.0,86,-99.99,,,0.00,Acu-Link.com,2013-01-01 08:12:00,
2013-01-01 02:27:00,20.3,16.8,30.12,NNE,22,5.8,-999.0,86,-99.99,,,0.00,Acu-Link.com,2013-01-01 08:27:00,
2013-01-01 02:42:00,20.3,16.5,30.12,NE,45,7.3,-999.0,85,-99.99,,,0.00,Acu-Link.com,2013-01-01 08:42:00,
2013-01-01 02:57:00,20.1,16.3,30.12,North,0,4.7,-999.0,85,-99.99,,,0.00,Acu-Link.com,2013-01-01 08:57:00,
2013-01-01 03:12:00,19.9,16.1,30.11,NW,315,6.3,-999.0,85,-99.99,,,0.00,Acu-Link.com,2013-01-01 09:12:00,
2013-01-01 03:27:00,19.9,16.1,30.11,NE,45,5.8,-999.0,85,-99.99,,,0.00,Acu-Link.com,2013-01-01 09:27:00,
2013-01-01 03:42:00,19.9,16.4,30.13,NE,45,5.8,-999.0,86,-99.99,,,0.00,Acu-Link.com,2013-01-01 09:42:00,
2013-01-01 03:58:00,19.6,16.1,30.12,NNE,22,7.3,-999.0,86,-99.99,,,0.00,Acu-Link.com,2013-01-01 09:58:00,
2013-01-01 04:13:00,19.2,15.2,30.11,NE,45,5.8,-999.0,84,-99.99,,,0.00,Acu-Link.com,2013-01-01 10:13:00,
2013-01-01 04:28:00,18.9,14.6,30.10,North,0,7.3,-999.0,83,-99.99,,,0.00,Acu-Link.com,2013-01-01 10:28:00,
2013-01-01 04:43:00,18.1,13.8,30.10,NNW,337,8.3,-999.0,83,-99.99,,,0.00,Acu-Link.com,2013-01-01 10:43:00,
2013-01-01 04:58:00,17.1,12.6,30.11,North,0,6.3,-999.0,82,-99.99,,,0.00,Acu-Link.com,2013-01-01 10:58:00,
2013-01-01 05:13:00,16.0,11.5,30.12,NNW,337,4.2,-999.0,82,-99.99,,,0.00,Acu-Link.com,2013-01-01 11:13:00,
2013-01-01 05:28:00,15.1,10.6,30.12,NNE,22,4.7,-999.0,82,-99.99,,,0.00,Acu-Link.com,2013-01-01 11:28:00,
2013-01-01 05:43:00,14.7,10.2,30.10,NNE,22,7.3,-999.0,82,-99.99,,,0.00,Acu-Link.com,2013-01-01 11:43:00,
2013-01-01 05:58:00,14.2,9.7,30.12,NNE,22,8.3,-999.0,82,-99.99,,,0.00,Acu-Link.com,2013-01-01 11:58:00,
2013-01-01 06:14:00,13.8,9.6,30.12,WNW,292,3.7,-999.0,83,-99.99,,,0.00,Acu-Link.com,2013-01-01 12:14:00,
2013-01-01 06:29:00,13.1,8.9,30.14,North,0,6.8,-999.0,83,-99.99,,,0.00,Acu-Link.com,2013-01-01 12:29:00,
2013-01-01 06:44:00,12.9,8.7,30.15,NW,315,4.7,-999.0,83,-99.99,,,0.00,Acu-Link.com,2013-01-01 12:44:00,
2013-01-01 06:59:00,12.0,7.6,30.17,NNE,22,2.7,-999.0,82,-99.99,,,0.00,Acu-Link.com,2013-01-01 12:59:00,
2013-01-01 07:14:00,11.1,6.7,30.18,West,270,0.0,-999.0,82,-99.99,,,0.00,Acu-Link.com,2013-01-01 13:14:00,
2013-01-01 07:29:00,10.8,6.9,30.18,NE,45,2.2,-999.0,84,-99.99,,,0.00,Acu-Link.com,2013-01-01 13:29:00,
2013-01-01 07:44:00,10.4,6.5,30.20,NE,45,2.7,-999.0,84,-99.99,,,0.00,Acu-Link.com,2013-01-01 13:44:00,
2013-01-01 07:59:00,10.2,6.3,30.20,NW,315,3.2,-999.0,84,-99.99,,,0.00,Acu-Link.com,2013-01-01 13:59:00,
2013-01-01 08:14:00,14.4,9.7,30.20,NNW,337,4.7,-999.0,81,-99.99,,,0.00,Acu-Link.com,2013-01-01 14:14:00,
2013-01-01 08:30:00,14.9,10.1,30.20,NW,315,3.2,-999.0,81,-99.99,,,0.00,Acu-Link.com,2013-01-01 14:30:00,
2013-01-01 08:45:00,15.1,10.1,30.19,NE,45,4.7,-999.0,80,-99.99,,,0.00,Acu-Link.com,2013-01-01 14:45:00,
2013-01-01 09:00:00,15.6,10.0,30.21,North,0,4.2,-999.0,78,-99.99,,,0.00,Acu-Link.com,2013-01-01 15:00:00,
2013-01-01 09:15:00,16.0,9.8,30.20,NNE,22,4.2,-999.0,76,-99.99,,,0.00,Acu-Link.com,2013-01-01 15:15:00,
2013-01-01 09:30:00,16.5,10.3,30.21,NNE,22,4.2,-999.0,76,-99.99,,,0.00,Acu-Link.com,2013-01-01 15:30:00,
2013-01-01 09:45:00,17.1,10.9,30.19,NNE,22,6.3,-999.0,76,-99.99,,,0.00,Acu-Link.com,2013-01-01 15:45:00,
2013-01-01 10:00:00,17.8,11.5,30.20,ENE,67,6.3,-999.0,76,-99.99,,,0.00,Acu-Link.com,2013-01-01 16:00:00,
2013-01-01 10:15:00,17.8,11.5,30.20,NNE,22,6.8,-999.0,76,-99.99,,,0.00,Acu-Link.com,2013-01-01 16:15:00,
2013-01-01 10:30:00,17.6,11.3,30.21,North,0,6.8,-999.0,76,-99.99,,,0.00,Acu-Link.com,2013-01-01 16:30:00,
2013-01-01 10:46:00,17.6,11.3,30.21,North,0,5.8,-999.0,76,-99.99,,,0.00,Acu-Link.com,2013-01-01 16:46:00,
2013-01-01 11:01:00,18.3,12.0,30.22,NE,45,5.3,-999.0,76,-99.99,,,0.00,Acu-Link.com,2013-01-01 17:01:00,
2013-01-01 11:16:00,18.7,12.1,30.20,North,0,4.2,-999.0,75,-99.99,,,0.00,Acu-Link.com,2013-01-01 17:16:00,
2013-01-01 11:31:00,18.7,11.8,30.19,NNW,337,4.7,-999.0,74,-99.99,,,0.00,Acu-Link.com,2013-01-01 17:31:00,
2013-01-01 11:46:00,19.9,13.3,30.20,North,0,3.7,-999.0,75,-99.99,,,0.00,Acu-Link.com,2013-01-01 17:46:00,
2013-01-01 12:01:00,21.2,13.9,30.18,NNE,22,4.2,-999.0,73,-99.99,,,0.00,Acu-Link.com,2013-01-01 18:01:00,
2013-01-01 12:16:00,21.2,13.6,30.19,NW,315,4.2,-999.0,72,-99.99,,,0.00,Acu-Link.com,2013-01-01 18:16:00,
2013-01-01 12:31:00,21.6,13.7,30.18,NNW,337,4.7,-999.0,71,-99.99,,,0.00,Acu-Link.com,2013-01-01 18:31:00,
2013-01-01 12:46:00,21.6,13.7,30.18,NE,45,3.7,-999.0,71,-99.99,,,0.00,Acu-Link.com,2013-01-01 18:46:00,
2013-01-01 13:02:00,21.7,14.1,30.18,NNW,337,2.7,-999.0,72,-99.99,,,0.00,Acu-Link.com,2013-01-01 19:02:00,
2013-01-01 13:17:00,21.4,13.5,30.16,NNW,337,4.2,-999.0,71,-99.99,,,0.00,Acu-Link.com,2013-01-01 19:17:00,
2013-01-01 13:32:00,23.2,14.6,30.18,North,0,3.2,-999.0,69,-99.99,,,0.00,Acu-Link.com,2013-01-01 19:32:00,
2013-01-01 13:47:00,23.5,13.8,30.17,North,0,2.7,-999.0,66,-99.99,,,0.00,Acu-Link.com,2013-01-01 19:47:00,
2013-01-01 14:02:00,23.4,14.1,30.18,NNW,337,5.3,-999.0,67,-99.99,,,0.00,Acu-Link.com,2013-01-01 20:02:00,
2013-01-01 14:17:00,23.4,13.4,30.18,NW,315,2.2,-999.0,65,-99.99,,,0.00,Acu-Link.com,2013-01-01 20:17:00,
2013-01-01 14:32:00,23.9,14.2,30.17,NNE,22,5.8,-999.0,66,-99.99,,,0.00,Acu-Link.com,2013-01-01 20:32:00,
2013-01-01 14:47:00,23.5,14.5,30.18,NNE,22,3.7,-999.0,68,-99.99,,,0.00,Acu-Link.com,2013-01-01 20:47:00,
2013-01-01 15:02:00,23.2,13.6,30.18,NNE,22,5.8,-999.0,66,-99.99,,,0.00,Acu-Link.com,2013-01-01 21:02:00,
2013-01-01 15:18:00,23.5,14.2,30.18,NE,45,5.8,-999.0,67,-99.99,,,0.00,Acu-Link.com,2013-01-01 21:18:00,
2013-01-01 15:33:00,23.0,13.0,30.19,NW,315,4.7,-999.0,65,-99.99,,,0.00,Acu-Link.com,2013-01-01 21:33:00,
2013-01-01 15:48:00,23.2,12.9,30.18,NNW,337,5.8,-999.0,64,-99.99,,,0.00,Acu-Link.com,2013-01-01 21:48:00,
2013-01-01 16:03:00,22.6,11.9,30.18,NNW,337,3.7,-999.0,63,-99.99,,,0.00,Acu-Link.com,2013-01-01 22:03:00,
2013-01-01 16:18:00,22.3,11.6,30.17,NNE,22,3.2,-999.0,63,-99.99,,,0.00,Acu-Link.com,2013-01-01 22:18:00,
2013-01-01 16:33:00,22.5,11.5,30.17,NNW,337,3.2,-999.0,62,-99.99,,,0.00,Acu-Link.com,2013-01-01 22:33:00,
2013-01-01 16:48:00,20.7,10.5,30.18,NW,315,3.2,-999.0,64,-99.99,,,0.00,Acu-Link.com,2013-01-01 22:48:00,
2013-01-01 17:03:00,19.6,10.1,30.18,North,0,1.7,-999.0,66,-99.99,,,0.00,Acu-Link.com,2013-01-01 23:03:00,
2013-01-01 17:18:00,18.3,9.9,30.17,SW,225,0.0,-999.0,69,-99.99,,,0.00,Acu-Link.com,2013-01-01 23:18:00,
2013-01-01 17:34:00,17.1,9.7,30.17,NNW,337,0.0,-999.0,72,-99.99,,,0.00,Acu-Link.com,2013-01-01 23:34:00,
2013-01-01 17:49:00,16.2,9.1,30.16,West,270,0.0,-999.0,73,-99.99,,,0.00,Acu-Link.com,2013-01-01 23:49:00,
2013-01-01 18:04:00,15.4,8.6,30.17,West,270,0.0,-999.0,74,-99.99,,,0.00,Acu-Link.com,2013-01-02 00:04:00,
2013-01-01 18:19:00,15.1,8.3,30.17,ESE,112,0.0,-999.0,74,-99.99,,,0.00,Acu-Link.com,2013-01-02 00:19:00,
2013-01-01 18:34:00,14.4,8.0,30.17,NW,315,0.0,-999.0,75,-99.99,,,0.00,Acu-Link.com,2013-01-02 00:34:00,
2013-01-01 18:49:00,13.8,8.5,30.16,North,0,0.0,-999.0,79,-99.99,,,0.00,Acu-Link.com,2013-01-02 00:49:00,
2013-01-01 19:04:00,13.5,7.9,30.18,WSW,247,0.0,-999.0,78,-99.99,,,0.00,Acu-Link.com,2013-01-02 01:04:00,
2013-01-01 19:19:00,13.1,7.6,30.17,NE,45,0.0,-999.0,78,-99.99,,,0.00,Acu-Link.com,2013-01-02 01:19:00,
2013-01-01 19:34:00,12.4,7.2,30.17,North,0,0.0,-999.0,79,-99.99,,,0.00,Acu-Link.com,2013-01-02 01:34:00,
2013-01-01 19:50:00,12.4,7.7,30.18,SSW,202,0.0,-999.0,81,-99.99,,,0.00,Acu-Link.com,2013-01-02 01:50:00,
2013-01-01 20:05:00,12.0,7.8,30.18,NNE,22,0.0,-999.0,83,-99.99,,,0.00,Acu-Link.com,2013-01-02 02:05:00,
2013-01-01 20:20:00,11.5,7.9,30.18,WSW,247,0.0,-999.0,85,-99.99,,,0.00,Acu-Link.com,2013-01-02 02:20:00,
2013-01-01 20:35:00,11.3,7.4,30.18,West,270,2.2,-999.0,84,-99.99,,,0.00,Acu-Link.com,2013-01-02 02:35:00,
2013-01-01 20:50:00,10.9,7.0,30.19,NNW,337,0.0,-999.0,84,-99.99,,,0.00,Acu-Link.com,2013-01-02 02:50:00,
2013-01-01 21:05:00,10.4,6.3,30.18,NNW,337,0.0,-999.0,83,-99.99,,,0.00,Acu-Link.com,2013-01-02 03:05:00,
2013-01-01 21:20:00,9.9,5.8,30.17,West,270,0.0,-999.0,83,-99.99,,,0.00,Acu-Link.com,2013-01-02 03:20:00,
2013-01-01 21:35:00,9.7,6.4,30.16,WNW,292,0.0,-999.0,86,-99.99,,,0.00,Acu-Link.com,2013-01-02 03:35:00,
2013-01-01 21:50:00,9.7,6.4,30.17,SW,225,0.0,-999.0,86,-99.99,,,0.00,Acu-Link.com,2013-01-02 03:50:00,
2013-01-01 22:06:00,9.3,6.0,30.17,ESE,112,0.0,-999.0,86,-99.99,,,0.00,Acu-Link.com,2013-01-02 04:06:00,
2013-01-01 22:21:00,9.0,5.4,30.17,NNW,337,0.0,-999.0,85,-99.99,,,0.00,Acu-Link.com,2013-01-02 04:21:00,
2013-01-01 22:36:00,8.8,5.2,30.18,ESE,112,0.0,-999.0,85,-99.99,,,0.00,Acu-Link.com,2013-01-02 04:36:00,
2013-01-01 22:51:00,8.6,5.0,30.15,North,0,0.0,-999.0,85,-99.99,,,0.00,Acu-Link.com,2013-01-02 04:51:00,
2013-01-01 23:06:00,8.6,5.3,30.15,SW,225,0.0,-999.0,86,-99.99,,,0.00,Acu-Link.com,2013-01-02 05:06:00,
2013-01-01 23:21:00,8.2,4.6,30.16,SW,225,0.0,-999.0,85,-99.99,,,0.00,Acu-Link.com,2013-01-02 05:21:00,
2013-01-01 23:36:00,8.6,5.3,30.17,West,270,2.7,-999.0,86,-99.99,,,0.00,Acu-Link.com,2013-01-02 05:36:00,
2013-01-01 23:51:00,9.5,6.2,30.17,West,270,3.2,-999.0,86,-99.99,,,0.00,Acu-Link.com,2013-01-02 05:51:00,